Location: Krasnoyarskiy Pitomnik
(51.1333°N, 71.6167°E)
Time: 09:41:31
(UTC+00:00)

Cosmos 1975 Rocket - Pass Details

Date: 22 October 2021
Orbit: 602 x 634 km, 82.5° (Epoch: 06 December)

Event Time Altitude Azimuth Distance (km) Brightness Sun altitude
Rises 23:38:11 0° 168° (SSE) 2,896 6.5 -21.3°
Reaches altitude 10° 23:40:29 10° 161° (SSE) 2,000 5.8 -21.0°
Maximum altitude 23:44:38 40° 92° (E) 932 4.5 -20.3°
Drops below altitude 10° 23:48:50 10° 23° (NNE) 2,029 6.1 -19.7°
Sets 23:51:11 0° 16° (NNE) 2,944 6.8 -19.3°
